GFSSGP_con_mucape_000.txt.gz
CAPE
0 0 0 0 0 0 0 0 0 0 0 0 0 0 0 0 0 0 2 34 3 0 0 1233 1704 1438 1027 1074 959 840 570 291 48 12 0 0 0 0 0 0 0 0 0 0 0 0 0 0 0
0 0 0 0 0 0 0 0 0 0 0 0 0 0 0 0 0 0 28 32 0 0 18 999 1829 1676 1444 1357 1256 1170 1044 598 273 107 14 0 4 0 0 4 4 14 34 27 1 0 2 1 1
0 0 0 9 22 3 0 0 0 0 0 0 0 0 0 0 0 0 4 12 6 0 175 729 1960 1878 1684 1584 1455 1341 1223 944 570 175 94 135 273 439 531 119 76 83 100 244 134 71 19 3 5
0 0 0 0 8 26 7 31 0 0 0 0 0 0 0 0 0 0 5 58 60 11 262 850 2078 1964 1909 1821 1679 1630 1351 1205 937 417 383 643 493 583 539 238 271 198 242 92 22 107 239 126 36
0 3 2 0 0 3 19 11 0 0 0 0 0 0 0 0 0 3 2 78 78 88 291 778 2099 2070 2044 1996 1863 1855 1666 1530 1473 917 663 808 706 640 489 396 329 215 208 102 58 91 386 357 185
0 0 0 0 0 0 0 0 0 0 0 0 0 0 0 0 0 49 57 41 89 96 232 679 2028 2164 2067 2062 2044 1966 1834 1688 1609 1514 1274 944 763 696 546 419 316 296 187 60 46 309 441 561 291
0 0 0 0 0 0 0 0 0 0 0 0 0 0 0 0 0 86 65 12 55 28 229 732 1632 1948 2193 2140 2013 1949 1786 1822 2025 1629 1078 729 463 68 11 2 34 88 95 54 48 72 289 411 244
0 0 0 0 0 0 0 0 0 0 0 0 0 0 0 0 0 100 112 18 46 88 223 637 1413 1649 1620 1758 2210 2099 2118 1781 1389 813 536 0 0 0 0 2 5 14 19 25 27 20 36 246 348
0 0 0 0 0 0 0 0 0 0 0 0 0 0 0 0 0 44 111 69 99 231 309 555 1066 1355 1400 1538 1780 2257 1326 1019 794 260 27 193 0 0 0 0 0 0 7 27 18 17 130 184 57
0 0 0 0 0 0 0 0 0 0 0 0 0 0 2 0 0 3 33 60 106 207 350 486 802 957 1105 1189 1151 1196 717 623 130 21 23 20 0 0 0 0 0 14 73 95 122 169 102 84 6
0 0 0 0 0 0 0 0 0 0 0 0 0 0 1 0 0 0 0 18 34 96 267 438 684 740 877 643 592 707 372 163 31 19 18 0 0 0 0 0 1 0 2 15 16 2 37 74 60
0 0 0 0 0 0 0 0 0 0 0 0 0 2 0 0 0 0 0 0 0 21 163 344 648 590 438 352 254 221 63 28 25 36 33 41 0 0 0 0 0 0 0 2 14 4 28 72 104
0 0 0 0 0 0 0 0 0 0 0 0 0 1 0 0 0 0 0 0 0 0 43 258 386 385 276 143 52 35 63 2 0 0 0 0 0 0 0 0 1 0 28 23 44 30 55 82 112
0 0 0 0 0 0 0 0 0 0 0 0 0 0 0 0 0 0 0 0 0 2 3 5 187 224 198 37 0 3 39 7 0 0 0 0 0 0 0 1 21 18 24 37 23 24 29 78 95
0 0 0 0 0 0 0 0 0 0 0 0 0 0 0 0 0 0 0 2 0 2 1 2 63 82 10 0 11 18 31 16 8 4 11 9 0 3 0 0 23 34 14 30 13 12 21 36 63
0 0 0 0 0 0 0 0 0 0 0 0 0 0 0 0 0 0 0 0 0 0 0 0 7 2 2 13 17 11 16 22 10 9 32 42 55 32 13 22 48 35 0 0 0 0 0 9 38
0 0 0 0 0 0 0 0 0 0 0 0 0 0 0 0 0 0 0 0 0 0 0 0 0 0 2 0 0 14 32 50 18 34 59 88 101 57 79 46 47 38 0 0 0 0 0 14 20
0 0 0 0 0 0 0 0 0 0 0 0 0 0 0 0 0 0 0 0 0 1 0 0 0 0 0 0 5 35 23 17 45 101 142 203 145 94 91 28 11 0 6 1 6 8 1 35 44
0 0 0 0 0 0 0 0 0 0 0 0 0 0 0 0 0 0 0 0 0 1 3 0 0 0 2 4 28 15 71 48 38 35 60 164 110 60 23 0 0 0 20 16 24 15 0 38 44
0 0 0 0 0 0 0 0 0 0 0 0 0 0 0 0 0 0 0 0 2 6 0 0 0 0 3 22 10 53 80 41 28 48 99 124 73 60 74 14 1 26 18 21 0 0 3 13 53
0 0 0 0 0 0 0 0 0 0 0 0 0 0 0 0 0 0 0 4 6 15 0 1 0 0 13 19 8 12 6 4 18 4 32 32 15 20 66 57 15 38 27 3 0 0 1 29 31
0 0 0 0 0 0 2 0 0 0 0 0 0 0 0 0 0 0 0 3 8 1 0 0 0 0 19 11 3 7 30 0 0 0 0 0 0 17 14 32 36 39 14 14 0 0 15 56 99
0 0 0 0 0 0 0 0 0 0 0 0 0 0 0 0 0 0 0 0 0 0 0 0 0 2 4 16 22 66 2 0 0 0 0 0 0 12 6 7 0 0 0 9 0 0 7 60 78
0 0 0 0 0 0 0 0 0 0 0 0 0 0 0 0 0 0 0 0 0 0 0 0 0 3 0 0 18 26 0 0 0 0 0 0 0 33 0 2 8 10 6 0 0 0 0 15 32
0 0 0 0 0 0 0 0 0 0 0 0 0 0 0 0 0 0 0 0 0 0 0 0 0 0 0 4 32 0 3 0 0 0 0 0 1 24 0 8 9 29 22 51 39 26 0 2 33
0 0 0 0 0 0 0 0 0 0 0 0 0 0 0 0 0 0 0 0 0 0 0 0 0 0 0 13 6 0 0 0 0 0 0 0 0 0 10 5 4 13 84 63 66 70 36 10 43
0 0 0 0 0 0 0 0 0 0 0 0 0 0 0 0 0 0 0 0 0 0 0 0 0 0 0 0 0 0 7 0 0 0 0 0 0 0 0 0 7 34 52 66 67 74 45 14 27
0 0 0 0 0 0 0 0 0 0 0 0 0 0 0 0 0 0 0 0 0 0 0 0 0 0 0 0 0 1 13 20 0 0 0 0 0 0 0 0 6 34 43 81 75 113 131 140 92
0 0 0 0 0 0 0 0 0 0 0 0 0 0 0 0 0 0 0 0 0 0 0 0 0 0 0 0 0 2 22 31 0 0 0 0 0 0 0 0 14 28 64 103 85 152 312 244 255
0 0 0 0 0 0 0 0 0 0 0 0 0 0 0 0 0 0 0 0 0 0 0 0 0 0 0 0 0 2 17 28 0 0 0 0 0 0 0 3 46 36 53 91 63 55 58 72 180

GFSSGP_con_mucape_003.txt.gz
CAPE
0 0 0 0 0 0 0 0 0 0 0 0 0 0 0 0 7 0 5 44 10 0 8 1108 1839 1571 1239 1086 880 774 640 388 99 19 1 0 0 0 0 0 0 0 0 0 0 0 1 1 0
0 0 0 0 0 0 3 0 0 0 0 0 0 0 0 0 0 3 73 84 6 0 191 337 1968 1756 1570 1354 1251 1157 984 714 503 241 37 5 5 0 0 0 11 3 0 0 83 90 38 3 3
0 0 0 0 0 28 23 0 0 0 0 0 0 0 0 0 0 2 63 50 0 0 225 749 2098 1976 1807 1636 1597 1507 1384 1135 870 434 288 259 296 330 341 347 189 126 60 1 190 322 224 157 17
0 0 0 0 4 10 0 0 13 0 0 0 0 0 0 0 0 0 105 19 0 1 268 670 2113 2106 2011 1883 1832 1771 1722 1500 1245 785 704 607 812 815 647 452 442 391 298 221 236 90 421 349 313
0 1 0 0 0 0 0 24 0 0 0 0 0 0 0 0 0 14 159 64 12 10 338 563 2209 2263 2230 2155 2041 1918 1836 1652 1516 1255 968 1062 1235 878 735 712 513 441 442 387 326 511 584 658 446
0 0 0 0 0 0 0 0 0 0 0 0 0 0 0 0 0 71 183 197 62 104 255 731 2127 2381 2264 2215 2144 1977 1982 1886 1852 1712 1576 1436 1333 909 859 729 697 642 547 481 387 435 543 464 549
0 0 0 0 0 0 0 0 0 0 0 0 0 0 0 0 0 58 150 215 176 229 355 872 1315 2082 2281 2197 2110 2042 2095 2050 2024 1910 1785 1469 1034 723 225 92 102 169 287 364 346 214 357 439 285
0 0 0 0 0 0 0 0 0 0 0 0 0 0 0 0 0 85 125 152 123 283 420 737 1175 1350 1373 1452 2294 2276 2219 2080 2058 2133 1489 936 115 14 9 49 0 9 12 53 86 103 184 374 330
0 0 0 0 0 0 0 0 0 0 0 0 0 0 0 0 0 86 167 169 137 187 426 607 996 1391 1365 1146 1551 2239 1902 1863 1847 1185 845 296 83 33 0 0 0 0 4 25 39 43 72 95 88
0 0 0 0 0 0 0 0 0 0 0 0 0 0 0 0 0 35 168 147 162 234 288 424 1015 1216 1320 1173 1433 1386 1171 865 828 677 375 421 352 161 18 0 0 1 33 211 233 261 82 239 46
0 0 0 0 0 0 0 0 0 0 0 0 1 0 0 0 0 2 54 83 84 231 291 321 747 1218 1312 1206 1408 1432 1057 1003 923 557 505 432 278 144 65 49 97 67 2 4 9 10 4 64 180
0 0 0 0 0 0 0 0 0 0 0 0 1 0 0 0 0 0 5 82 94 192 299 456 665 1058 1389 1180 1165 941 808 734 516 466 567 561 477 298 223 69 144 131 7 53 95 64 90 188 236
0 0 0 0 0 0 0 0 0 0 0 0 0 0 0 0 0 0 0 21 86 139 210 485 720 954 1190 1125 799 713 583 430 393 490 493 565 559 588 409 347 335 296 40 264 336 173 147 202 282
0 0 0 0 0 0 0 0 0 0 0 1 0 0 0 0 0 0 0 0 22 95 90 169 596 1003 961 802 702 570 612 479 543 451 449 445 482 513 445 407 458 802 585 387 354 127 153 119 213
0 0 0 0 0 0 0 0 0 0 0 0 0 0 0 0 0 0 0 0 6 14 16 48 493 858 861 742 602 467 462 574 596 575 597 403 478 554 644 919 732 859 246 363 255 224 237 192 167
0 0 0 0 0 0 0 0 0 0 0 0 0 0 0 0 0 0 0 0 1 3 0 2 73 621 844 689 513 475 529 602 575 541 539 530 617 762 834 892 763 540 367 528 310 263 185 167 188
0 0 0 0 0 0 0 0 0 0 0 0 0 0 0 0 0 0 0 0 0 0 0 3 143 529 673 578 503 574 631 531 479 546 623 709 747 737 809 832 421 455 477 184 327 295 228 199 229
0 0 0 0 0 0 0 0 0 0 0 0 0 0 0 0 0 0 0 0 0 0 0 142 241 580 541 460 363 387 404 472 569 671 768 805 858 708 642 471 195 296 187 176 206 365 271 272 303
0 0 0 0 0 0 0 0 0 0 0 0 0 0 0 0 0 0 0 0 0 0 0 247 476 549 414 182 206 365 484 545 567 650 746 869 959 697 753 535 137 56 188 350 339 288 238 354 412
0 0 0 0 0 0 0 0 0 0 0 0 0 0 0 0 0 0 0 0 0 0 19 356 523 408 329 231 317 448 593 669 622 620 796 904 857 677 550 201 142 144 295 374 326 309 243 322 464
0 0 0 0 0 0 0 0 0 0 0 0 0 0 0 0 0 0 0 0 0 1 41 276 391 330 270 286 346 429 396 467 465 402 506 435 227 312 507 280 257 376 375 370 321 272 205 262 373
0 0 0 0 0 0 0 0 0 0 0 0 0 0 0 0 0 0 0 0 2 1 22 193 272 308 313 300 398 573 629 506 315 288 280 262 156 302 386 401 356 500 395 359 301 254 228 321 464
0 0 0 0 0 0 0 0 0 0 0 0 0 0 0 0 0 0 0 0 0 0 44 167 251 317 335 345 387 598 720 254 208 134 245 295 321 292 195 403 468 463 387 478 335 281 317 724 546
0 0 0 0 0 0 0 0 0 0 0 0 0 0 0 0 0 0 0 0 0 0 38 109 222 396 389 427 495 799 520 311 51 78 93 133 202 183 278 242 400 421 449 416 296 354 384 580 700
0 0 0 0 0 0 0 0 0 0 0 0 0 0 0 0 0 0 0 0 0 0 27 59 228 307 363 389 499 525 408 140 33 39 54 61 140 185 339 290 259 358 466 467 429 468 438 462 576
0 0 0 0 0 0 0 0 0 0 0 0 0 0 0 0 0 0 0 0 0 18 56 43 263 237 238 333 549 340 298 3 0 21 38 2 113 126 126 113 184 404 367 404 471 475 322 332 785
0 0 0 0 0 0 0 0 0 0 0 0 0 0 0 0 0 0 0 0 0 33 100 169 181 173 206 308 524 377 358 38 73 78 36 0 28 41 64 100 271 285 336 375 495 674 591 353 442
0 0 0 0 0 0 0 0 0 0 0 0 0 0 0 0 0 0 0 0 0 30 106 169 103 88 117 109 481 377 452 95 90 73 42 0 4 31 52 87 145 217 331 391 647 604 433 453 538
0 0 0 0 0 0 0 0 0 0 0 0 0 0 0 0 0 0 0 0 0 6 28 81 21 14 5 32 238 396 421 107 59 73 32 0 3 20 30 62 109 164 364 560 489 303 173 206 353
0 0 0 0 0 0 0 0 0 0 0 0 0 0 0 0 0 0 0 0 0 0 8 5 6 16 0 34 10 226 437 116 58 70 24 0 0 0 27 127 129 137 269 424 382 177 235 247 212

GFSSGP_con_mucape_006.txt.gz
CAPE
0 0 0 0 0 0 0 0 0 0 0 0 0 0 0 0 0 0 83 206 117 0 180 952 1558 1346 1265 1102 876 718 577 284 54 1 0 0 0 0 0 0 0 0 0 0 0 1 4 0 0
0 0 0 0 0 0 5 3 13 0 0 0 0 0 0 0 0 0 12 215 96 3 261 250 1722 1465 1386 1282 1129 973 871 540 256 92 14 0 0 0 0 0 0 13 20 16 24 155 73 17 4
0 0 0 0 0 34 113 6 0 0 0 0 0 0 0 0 0 0 200 334 100 8 189 309 1874 1681 1597 1535 1329 1220 1142 976 642 250 141 108 107 197 211 19 17 127 135 100 49 231 396 230 83
0 0 0 0 106 194 228 5 0 12 0 0 0 0 0 0 0 2 207 267 138 31 89 506 1994 1887 1780 1732 1592 1528 1440 1283 1132 676 482 363 501 638 676 276 240 355 374 248 229 237 341 224 346
0 0 0 0 0 16 134 190 101 7 0 0 0 0 0 0 0 6 194 185 141 87 167 233 2159 2105 2013 1985 1904 1887 1867 1748 1623 1192 823 811 1022 1125 1012 700 756 716 497 504 465 515 743 658 153
0 0 0 0 0 0 0 0 0 0 0 0 0 0 0 1 0 22 113 219 135 104 269 449 2086 2316 2162 2131 2097 2041 2020 1979 1812 1642 1504 1430 1497 1379 1000 940 841 773 680 642 617 589 472 556 280
0 0 0 0 0 0 0 0 0 0 0 0 0 0 8 3 0 11 110 189 211 111 224 666 1380 2098 2295 2208 2150 2120 2013 1973 1906 1898 1929 1859 1593 1171 860 399 224 206 249 394 489 497 406 324 158
0 0 0 0 0 0 0 0 0 0 0 0 0 0 20 18 9 12 84 120 229 190 181 328 937 1247 1154 1173 2345 2220 2186 2157 2112 2161 2017 1810 1205 472 85 99 128 52 63 87 157 230 242 389 294
0 0 0 0 0 0 2 0 0 0 0 0 0 0 3 0 3 41 80 102 155 200 303 271 615 1029 916 648 1440 2220 2068 2098 2079 1677 1730 1068 273 268 305 24 0 0 0 4 40 69 111 119 161
0 0 0 0 0 0 1 0 0 0 0 0 1 0 11 0 0 10 16 54 158 239 260 412 798 961 948 458 975 1629 1113 990 696 570 606 686 440 578 254 68 0 0 4 39 305 323 284 120 102
0 0 0 0 0 2 0 0 0 0 0 0 1 8 47 9 7 15 12 24 34 198 283 349 849 1317 1159 792 1063 1331 838 880 860 891 718 642 638 625 479 363 262 356 236 94 171 260 214 111 81
0 0 0 0 0 0 0 0 0 0 0 0 0 5 30 0 13 21 28 37 14 75 256 380 547 1459 1734 945 1136 893 858 890 864 714 778 821 817 736 690 470 300 369 120 68 178 156 120 163 170
0 0 0 0 0 0 0 0 0 0 0 0 0 12 15 2 10 7 5 28 46 83 222 470 670 1332 1685 1788 1225 958 786 705 568 415 705 906 784 848 763 736 486 383 446 72 203 293 211 149 136
0 0 0 0 0 0 0 0 0 0 0 0 1 8 0 0 0 0 0 0 68 102 296 509 777 1602 1732 1994 1490 1178 974 610 571 396 667 880 897 861 876 998 1019 1177 1099 579 172 393 167 109 137
0 0 0 0 0 0 0 0 0 0 0 0 0 0 0 0 0 0 0 0 50 165 251 798 1025 1417 2081 1838 1534 1054 781 588 394 605 957 990 1085 1036 1129 1547 1380 1278 1683 994 424 209 298 119 121
0 0 0 0 0 0 0 0 0 0 0 0 0 0 0 0 0 0 0 0 60 246 260 581 651 1262 1951 1927 1540 767 526 463 460 711 792 994 1156 1171 1405 1518 1401 1395 1196 983 546 570 179 144 121
0 0 0 0 2 0 0 0 0 0 0 0 0 0 0 0 0 0 0 0 79 354 423 555 602 1038 1898 1948 1303 951 704 558 632 691 752 867 1132 1187 1527 1495 1328 1083 595 792 881 541 303 266 168
0 0 0 0 0 0 0 0 0 0 0 0 0 0 0 0 0 0 0 3 67 254 482 372 612 1440 1894 1558 1073 596 627 612 698 702 824 976 1172 1108 1332 1263 1021 454 547 896 699 416 520 282 231
0 0 0 0 0 0 0 0 0 0 0 0 0 0 0 0 0 0 0 12 49 185 273 365 650 1811 1774 1104 660 489 472 566 587 700 995 1192 1158 1075 1063 975 828 831 510 308 500 701 524 567 462
0 0 0 0 0 2 0 0 0 0 0 0 0 0 0 0 0 0 31 44 56 188 271 494 830 1477 1373 696 780 375 381 364 439 674 1051 1170 1047 993 940 897 786 460 195 372 508 517 823 771 520
0 0 0 0 0 0 0 0 0 0 0 0 0 0 0 0 0 0 73 64 105 201 422 706 1099 1060 705 684 682 874 847 675 606 766 760 845 873 809 690 678 619 489 605 809 693 575 427 541 540
0 0 0 0 0 0 0 0 0 0 0 0 0 0 0 0 0 1 71 80 162 257 429 793 886 696 633 594 545 463 193 239 339 348 407 587 570 481 459 654 582 652 728 669 576 463 586 530 702
0 0 0 0 0 0 0 0 0 0 0 0 0 0 0 0 0 6 139 111 147 276 525 717 729 679 665 551 531 504 343 417 313 191 544 633 555 391 300 587 563 657 663 651 514 445 520 587 666
0 0 0 0 0 0 0 0 0 0 0 0 0 0 0 0 23 34 45 90 155 301 502 619 674 622 642 562 627 575 775 514 208 301 378 373 678 409 367 347 489 622 687 664 536 518 524 731 817
0 0 0 0 0 0 0 0 0 0 0 0 0 0 4 38 85 43 81 111 176 276 356 458 450 542 519 485 577 777 942 574 510 387 329 319 563 306 375 430 555 713 728 712 594 676 612 746 867
0 0 0 0 0 0 0 0 0 0 0 0 0 0 0 71 134 139 111 139 144 207 251 181 400 427 404 309 637 759 709 309 155 304 202 235 442 133 385 457 475 502 473 544 729 792 717 674 796
0 0 0 0 0 0 0 0 0 0 0 0 0 0 0 148 185 165 130 143 137 198 176 300 293 229 194 379 678 815 673 299 309 349 302 286 195 167 254 292 332 354 295 395 655 685 796 674 584
0 0 0 0 0 0 0 0 0 0 0 0 0 0 117 190 169 160 149 153 194 217 255 301 191 83 161 506 543 637 586 428 394 286 141 145 169 60 114 156 243 357 359 360 623 817 610 687 665
0 0 0 0 0 0 0 0 0 0 0 0 24 122 251 190 146 125 140 170 252 272 290 290 25 83 208 347 537 524 511 396 360 334 147 95 114 91 65 64 187 182 344 551 671 500 400 461 634
0 0 0 0 0 0 0 0 0 0 6 2 7 162 259 190 116 92 106 146 188 226 215 48 33 45 69 222 379 494 392 433 396 311 217 51 44 48 28 82 84 91 281 405 484 350 247 302 562

GFSSGP_con_mucape_009.txt.gz
CAPE
0 0 0 0 0 0 0 0 2 1 13 0 0 0 0 0 0 0 17 81 65 76 269 535 1234 1170 1111 912 742 548 390 107 0 0 0 0 0 0 0 0 0 0 0 0 0 1 0 0 0
0 0 0 0 0 0 7 6 25 62 5 0 0 0 0 1 0 0 40 116 98 116 524 191 1437 1291 1352 1123 965 847 665 312 129 18 0 0 0 0 0 0 0 0 0 0 0 38 134 51 3
0 0 0 0 0 0 127 72 93 16 0 0 0 0 0 0 0 0 150 118 88 92 632 398 1557 1405 1533 1429 1175 1049 951 771 400 140 84 56 37 37 44 27 15 16 125 131 118 70 273 381 184
0 0 0 0 0 47 61 171 54 31 35 0 0 0 0 0 0 0 33 113 97 80 525 1456 1568 1535 1615 1642 1476 1324 1191 1072 807 409 286 236 238 546 545 133 145 151 238 382 352 287 238 412 285
0 0 0 0 0 0 85 112 181 121 54 9 0 0 0 22 0 0 65 120 102 75 197 1322 1755 1812 1795 1924 1734 1597 1467 1419 1300 889 606 522 828 932 795 529 613 645 698 643 521 663 525 373 211
0 0 0 0 0 0 26 12 6 24 58 14 5 4 0 19 0 0 10 87 69 82 89 478 2027 1953 1948 1998 1913 1766 1755 1746 1672 1522 1352 1130 1226 1361 1187 965 1016 912 832 732 655 597 515 476 287
0 0 0 3 3 0 7 8 4 4 28 30 9 0 0 69 13 0 6 38 60 59 67 134 1860 2025 2129 2080 1987 1971 1980 2020 1985 1870 1735 1683 1402 1606 1255 971 736 484 369 321 344 440 506 467 333
0 0 0 10 2 0 3 10 0 0 2 30 0 0 8 49 6 13 4 19 35 113 72 163 516 1860 1605 1171 2251 2181 2173 2130 2038 1961 1842 1803 1368 1332 1048 358 242 119 89 114 130 192 272 395 512
0 0 0 0 3 1 2 18 4 24 0 0 0 0 0 0 0 10 3 7 19 47 161 127 189 771 1225 660 1125 2238 2068 2072 2029 1668 1673 1516 592 355 606 708 119 87 13 10 35 82 110 196 301
0 0 0 0 4 13 15 25 22 33 32 0 0 0 8 20 34 37 0 4 8 71 105 177 905 619 979 510 1003 1809 1219 1264 1092 748 525 1209 670 584 602 583 96 56 21 33 101 319 441 391 111
0 0 0 24 38 15 43 23 19 43 41 27 0 0 0 2 20 41 0 0 5 30 128 226 1421 1895 1428 921 729 1723 1260 1097 993 860 1183 1197 682 886 849 727 713 597 323 524 318 428 465 246 490
0 0 0 0 10 6 16 17 27 49 45 7 0 0 0 0 18 36 0 2 31 56 38 287 580 2093 2689 1121 615 958 1214 1183 889 1045 1459 1153 814 1229 1132 713 676 1001 508 528 280 243 698 251 307
0 0 0 0 0 2 19 7 2 48 12 0 0 0 0 3 29 0 0 0 6 49 52 119 1120 2464 2851 3088 968 1353 1329 901 1139 880 918 996 905 1412 986 1243 875 758 516 626 951 889 733 860 475
0 1 0 0 0 5 16 7 5 9 0 0 0 0 3 4 2 0 0 0 13 85 103 157 1207 2597 2784 2531 2925 2451 2431 1181 937 716 598 969 1151 1281 920 1005 1257 1416 1303 711 618 600 688 573 285
0 5 4 1 1 0 19 4 0 0 0 0 0 0 0 3 0 0 0 6 8 119 200 1342 2058 2576 3224 3245 3061 2067 1347 1045 832 673 841 858 1219 1420 1192 1011 1600 1650 1357 1222 972 973 813 403 436
0 9 0 0 0 0 21 0 0 0 2 1 15 3 3 0 0 0 0 69 306 456 743 1383 817 2425 3329 3276 2742 1946 1242 1060 562 529 713 1203 1259 1214 1130 1311 1580 1759 1533 1545 1302 670 563 719 255
0 0 0 0 0 3 41 3 0 17 1 12 10 9 0 0 0 5 0 52 289 761 1433 1340 2124 2032 3299 3545 2450 2192 2340 976 584 595 778 810 1021 1093 1605 1436 1565 1512 1498 1095 793 734 1228 896 532
0 0 0 0 0 9 20 36 23 60 1 1 0 9 1 0 0 0 30 52 255 1113 1687 2044 2002 2646 3449 2720 3012 1599 960 846 588 730 709 768 1063 1084 1712 1367 1354 1376 1129 829 898 1032 962 1003 1062
0 0 0 0 0 18 11 18 4 27 0 3 0 0 0 0 0 8 1 103 43 461 1002 1957 2045 2711 2802 2315 1853 1328 861 978 716 742 761 994 1142 1448 1384 1312 1118 1176 1284 1090 782 718 405 789 1046
0 0 0 0 0 26 16 5 0 0 1 0 0 0 0 0 0 0 3 0 462 566 984 1196 1514 2872 2892 2309 2061 1270 1178 703 708 634 936 1086 1036 1070 1271 1195 1082 1032 1205 944 495 583 687 663 1134
0 0 0 0 0 5 3 0 0 0 0 0 0 0 0 0 0 0 0 21 576 719 956 975 1290 2184 2754 2331 1772 1376 937 771 758 588 801 1008 904 868 1004 1012 914 848 936 715 813 826 671 860 824
0 0 0 0 0 0 3 0 0 0 0 0 0 0 0 0 0 0 0 691 685 769 955 1160 1549 1993 1829 1950 1424 2142 985 585 458 672 426 583 552 624 514 720 737 945 786 807 869 864 720 663 836
0 0 0 1 0 0 0 0 0 0 0 0 0 0 0 0 0 0 0 726 676 795 1039 1534 1595 1401 1409 1437 1665 812 866 511 412 239 581 873 842 584 440 636 639 652 910 888 865 634 577 989 1089
0 0 2 2 0 0 0 0 0 0 0 0 3 0 0 0 0 2 651 684 715 841 1217 1283 1052 1068 892 747 821 916 640 381 252 425 491 969 709 496 435 341 446 502 743 801 911 612 653 990 1001
0 5 0 2 0 0 0 0 0 0 0 0 0 0 0 46 196 419 605 638 747 918 999 974 942 877 721 680 640 767 826 738 648 604 731 551 608 829 538 310 432 624 882 788 661 708 698 987 1035
0 0 0 0 0 0 0 0 0 0 0 0 0 0 197 356 462 484 590 641 731 819 803 696 806 699 575 580 647 641 771 516 347 431 246 544 436 545 328 386 531 681 665 663 761 1370 814 760 922
0 3 0 1 8 9 3 1 0 0 1 0 0 0 0 479 621 597 623 660 635 679 630 703 680 578 502 451 599 676 693 308 756 580 499 521 807 254 191 264 454 542 619 491 696 962 773 795 888
1 0 0 0 8 0 2 0 0 0 0 0 0 24 332 620 678 664 631 595 589 523 598 681 591 494 342 511 484 649 484 484 564 474 318 161 204 48 82 147 309 334 346 373 677 994 958 937 820
0 7 0 0 7 10 5 0 0 0 0 41 8 90 646 692 622 588 554 581 509 539 584 542 346 264 407 405 661 970 847 331 474 392 202 155 120 39 54 73 98 100 195 545 756 838 635 536 1007
0 4 0 3 3 1 9 5 0 1 13 78 207 472 629 595 571 525 549 520 503 564 518 245 218 130 281 287 512 1004 988 470 536 445 171 79 53 15 36 60 88 70 626 472 648 427 339 558 696